DAL4382 SAWG-SAVC

Flight info

Callsign DAL4382
Flight time 0h 57m
Altitude 35000
Route KADEB2G KADEB UP664 CRV
Aircraft B738/M-SDE2E3FGHIRWXY/LB1

Departure

Time 2026-04-14 21:01
Airport Piloto Civil Norberto Fernández International Airport (SAWG)

Arrival

Time 2026-04-14 21:58
Airport General Enrique Mosconi International Airport (SAVC)
Time Latitude Longitude Altitude Speed Heading
2026-04-14 20:41 -51.61153 -69.30528 55 ft 0 kts 279°
2026-04-14 20:52 -51.61154 -69.30518 55 ft 4 kts 276°
2026-04-14 20:53 -51.61153 -69.30477 50 ft 4 kts 245°
2026-04-14 20:53 -51.61142 -69.30450 54 ft 4 kts 291°
2026-04-14 20:53 -51.61142 -69.30448 54 ft 1 kts 310°
2026-04-14 20:55 -51.61140 -69.30452 54 ft 2 kts 309°
2026-04-14 20:56 -51.61124 -69.30483 49 ft 6 kts 309°
2026-04-14 20:56 -51.61084 -69.30549 55 ft 9 kts 331°
2026-04-14 20:56 -51.61040 -69.30528 54 ft 6 kts 70°
2026-04-14 20:56 -51.61034 -69.30455 54 ft 8 kts 86°
2026-04-14 20:57 -51.61029 -69.30339 52 ft 13 kts 86°
2026-04-14 20:57 -51.61022 -69.30169 54 ft 16 kts 86°
2026-04-14 20:57 -51.61014 -69.29989 52 ft 16 kts 85°
2026-04-14 20:57 -51.61004 -69.29816 53 ft 15 kts 84°
2026-04-14 20:58 -51.60996 -69.29650 53 ft 15 kts 86°
2026-04-14 20:58 -51.60987 -69.29491 53 ft 14 kts 83°
2026-04-14 20:58 -51.60981 -69.29338 52 ft 13 kts 86°
2026-04-14 20:58 -51.60974 -69.29185 52 ft 15 kts 86°
2026-04-14 20:59 -51.60965 -69.28996 51 ft 18 kts 85°
2026-04-14 20:59 -51.60955 -69.28798 51 ft 17 kts 81°
2026-04-14 20:59 -51.60883 -69.28715 51 ft 13 kts 359°
2026-04-14 20:59 -51.60794 -69.28729 52 ft 13 kts 343°
2026-04-14 21:00 -51.60768 -69.28850 47 ft 12 kts 265°
2026-04-14 21:00 -51.60785 -69.29224 47 ft 66 kts 266°
2026-04-14 21:00 -51.60839 -69.30312 54 ft 126 kts 264°
2026-04-14 21:00 -51.60901 -69.31920 334 ft 150 kts 264°
2026-04-14 21:01 -51.60993 -69.33580 1083 ft 154 kts 269°
2026-04-14 21:01 -51.60923 -69.35306 1672 ft 160 kts 297°
2026-04-14 21:01 -51.60066 -69.36554 2049 ft 184 kts 339°
2026-04-14 21:01 -51.58688 -69.36484 2278 ft 216 kts
2026-04-14 21:02 -51.57171 -69.35889 2692 ft 232 kts
2026-04-14 21:02 -51.55561 -69.35237 3402 ft 240 kts
2026-04-14 21:02 -51.53934 -69.34585 4234 ft 242 kts
2026-04-14 21:02 -51.52269 -69.33932 4947 ft 250 kts
2026-04-14 21:03 -51.50568 -69.33273 5797 ft 253 kts
2026-04-14 21:03 -51.48836 -69.32613 6518 ft 260 kts
2026-04-14 21:03 -51.47045 -69.31939 7177 ft 268 kts
2026-04-14 21:03 -51.45208 -69.31249 7902 ft 273 kts
2026-04-14 21:04 -51.43353 -69.30557 8603 ft 280 kts
2026-04-14 21:04 -51.41420 -69.29842 9233 ft 291 kts
2026-04-14 21:04 -51.39426 -69.29104 9865 ft 296 kts
2026-04-14 21:04 -51.37403 -69.28354 10540 ft 303 kts
2026-04-14 21:05 -51.36636 -69.28063 10647 ft 312 kts
2026-04-14 21:05 -51.34449 -69.27163 10833 ft 337 kts
2026-04-14 21:05 -51.32109 -69.26148 11031 ft 359 kts
2026-04-14 21:05 -51.29636 -69.25054 11302 ft 376 kts
2026-04-14 21:06 -51.27094 -69.23916 11878 ft 383 kts
2026-04-14 21:06 -51.24514 -69.22760 12609 ft 386 kts
2026-04-14 21:06 -51.21917 -69.21603 13352 ft 389 kts
2026-04-14 21:06 -51.19299 -69.20445 14056 ft 391 kts
2026-04-14 21:07 -51.16671 -69.19289 14797 ft 393 kts
2026-04-14 21:07 -51.14026 -69.18132 15514 ft 395 kts
2026-04-14 21:07 -51.11361 -69.16971 16141 ft 400 kts
2026-04-14 21:07 -51.08656 -69.15796 16771 ft 404 kts
2026-04-14 21:08 -51.05936 -69.14614 17499 ft 406 kts
2026-04-14 21:08 -51.03204 -69.13428 18141 ft 409 kts
2026-04-14 21:08 -51.00442 -69.12232 18660 ft 413 kts
2026-04-14 21:08 -50.97694 -69.11043 19210 ft 416 kts
2026-04-14 21:09 -50.94892 -69.09832 19781 ft 419 kts
2026-04-14 21:09 -50.92072 -69.08615 20336 ft 421 kts
2026-04-14 21:09 -50.89234 -69.07391 20862 ft 425 kts
2026-04-14 21:09 -50.86371 -69.06158 21378 ft 428 kts
2026-04-14 21:10 -50.83478 -69.04914 21796 ft 433 kts
2026-04-14 21:10 -50.80555 -69.03658 22267 ft 437 kts
2026-04-14 21:10 -50.77609 -69.02392 22773 ft 439 kts
2026-04-14 21:10 -50.74650 -69.01124 23222 ft 442 kts
2026-04-14 21:11 -50.71661 -68.99847 23510 ft 448 kts
2026-04-14 21:11 -50.68638 -68.98636 23829 ft 450 kts
2026-04-14 21:11 -50.65571 -68.97514 24148 ft 454 kts
2026-04-14 21:11 -50.62481 -68.96428 24472 ft 457 kts
2026-04-14 21:12 -50.59360 -68.95338 24735 ft 462 kts
2026-04-14 21:12 -50.56197 -68.94228 24954 ft 468 kts
2026-04-14 21:12 -50.52997 -68.93096 25227 ft 473 kts
2026-04-14 21:12 -50.49771 -68.91943 25513 ft 478 kts
2026-04-14 21:13 -50.46550 -68.90786 25782 ft 482 kts
2026-04-14 21:13 -50.43274 -68.89608 26038 ft 486 kts
2026-04-14 21:13 -50.39958 -68.88415 26302 ft 490 kts
2026-04-14 21:14 -50.33255 -68.86008 26778 ft 499 kts
2026-04-14 21:14 -50.29849 -68.84790 26927 ft 505 kts
2026-04-14 21:14 -50.26403 -68.83560 27160 ft 509 kts
2026-04-14 21:14 -50.22952 -68.82326 27571 ft 509 kts
2026-04-14 21:15 -50.19488 -68.81091 27800 ft 513 kts
2026-04-14 21:15 -50.15987 -68.79846 27979 ft 518 kts
2026-04-14 21:15 -50.12461 -68.78595 28245 ft 521 kts
2026-04-14 21:15 -50.08922 -68.77339 28586 ft 522 kts
2026-04-14 21:16 -50.05385 -68.76085 28865 ft 523 kts
2026-04-14 21:16 -50.01814 -68.74823 29126 ft 526 kts
2026-04-14 21:16 -49.98235 -68.73561 29411 ft 528 kts
2026-04-14 21:16 -49.94650 -68.72297 29718 ft 529 kts
2026-04-14 21:17 -49.91054 -68.71030 30061 ft 529 kts
2026-04-14 21:17 -49.87474 -68.69770 30458 ft 526 kts
2026-04-14 21:17 -49.83911 -68.68517 30881 ft 524 kts
2026-04-14 21:17 -49.80393 -68.67279 31555 ft 514 kts
2026-04-14 21:18 -49.76914 -68.66060 31941 ft 512 kts
2026-04-14 21:18 -49.73423 -68.64846 32105 ft 516 kts
2026-04-14 21:18 -49.69907 -68.63626 32299 ft 518 kts
2026-04-14 21:18 -49.66387 -68.62403 32643 ft 517 kts
2026-04-14 21:19 -49.62888 -68.61186 33078 ft 514 kts
2026-04-14 21:19 -49.59408 -68.59976 33474 ft 512 kts
2026-04-14 21:19 -49.55928 -68.58769 33740 ft 511 kts
2026-04-14 21:19 -49.52459 -68.57569 33964 ft 511 kts
2026-04-14 21:20 -49.49030 -68.56385 34271 ft 510 kts
2026-04-14 21:20 -49.45580 -68.55194 34590 ft 508 kts
2026-04-14 21:20 -49.38662 -68.52813 34590 ft 506 kts
2026-04-14 21:21 -49.31846 -68.50469 34587 ft 498 kts
2026-04-14 21:21 -49.25078 -68.48155 34600 ft 499 kts
2026-04-14 21:22 -49.18285 -68.45838 34615 ft 501 kts
2026-04-14 21:22 -49.11473 -68.43522 34617 ft 502 kts
2026-04-14 21:23 -49.04632 -68.41201 34629 ft 504 kts
2026-04-14 21:23 -48.97824 -68.38896 34639 ft 502 kts
2026-04-14 21:24 -48.91061 -68.36606 34622 ft 494 kts
2026-04-14 21:24 -48.84361 -68.34351 34645 ft 493 kts
2026-04-14 21:25 -48.77667 -68.32108 34632 ft 493 kts
2026-04-14 21:25 -48.70965 -68.29866 34649 ft 494 kts
2026-04-14 21:26 -48.64231 -68.27619 34674 ft 496 kts
2026-04-14 21:26 -48.57468 -68.25368 34669 ft 498 kts
2026-04-14 21:27 -48.50664 -68.23109 34680 ft 501 kts
2026-04-14 21:27 -48.43845 -68.20851 34682 ft 503 kts
2026-04-14 21:28 -48.37028 -68.18599 34684 ft 505 kts
2026-04-14 21:28 -48.30106 -68.16319 34665 ft 506 kts
2026-04-14 21:29 -48.23260 -68.14071 34686 ft 507 kts
2026-04-14 21:29 -48.16372 -68.11813 34697 ft 503 kts
2026-04-14 21:30 -48.09597 -68.09595 34694 ft 495 kts
2026-04-14 21:30 -48.02867 -68.07404 34692 ft 494 kts
2026-04-14 21:31 -47.96142 -68.05223 34710 ft 494 kts
2026-04-14 21:31 -47.89413 -68.03045 34716 ft 495 kts
2026-04-14 21:32 -47.82677 -68.00869 34720 ft 496 kts
2026-04-14 21:32 -47.75921 -67.98691 34723 ft 496 kts
2026-04-14 21:33 -47.69173 -67.96521 34729 ft 495 kts
2026-04-14 21:33 -47.63581 -67.94727 34734 ft 494 kts
2026-04-14 21:34 -47.55777 -67.92241 34701 ft 492 kts
2026-04-14 21:34 -47.50101 -67.90441 34142 ft 502 kts
2026-04-14 21:35 -47.46720 -67.89361 33616 ft 503 kts
2026-04-14 21:35 -47.43278 -67.88261 32956 ft 505 kts
2026-04-14 21:35 -47.39842 -67.87165 32313 ft 506 kts
2026-04-14 21:35 -47.36388 -67.86066 31679 ft 506 kts
2026-04-14 21:36 -47.32954 -67.84976 31050 ft 504 kts
2026-04-14 21:36 -47.29531 -67.83892 30443 ft 503 kts
2026-04-14 21:36 -47.26098 -67.82808 29851 ft 503 kts
2026-04-14 21:36 -47.22677 -67.81728 29162 ft 502 kts
2026-04-14 21:37 -47.19268 -67.80654 28478 ft 500 kts
2026-04-14 21:37 -47.15907 -67.79596 27814 ft 498 kts
2026-04-14 21:37 -47.12530 -67.78534 27168 ft 495 kts
2026-04-14 21:37 -47.09170 -67.77478 26501 ft 492 kts
2026-04-14 21:38 -47.05830 -67.76430 25875 ft 488 kts
2026-04-14 21:38 -47.02523 -67.75394 25258 ft 484 kts
2026-04-14 21:38 -46.99244 -67.74369 24656 ft 479 kts
2026-04-14 21:38 -46.96016 -67.73357 24070 ft 469 kts
2026-04-14 21:39 -46.92851 -67.72367 23484 ft 460 kts
2026-04-14 21:39 -46.89756 -67.71401 22818 ft 451 kts
2026-04-14 21:39 -46.86711 -67.70454 22121 ft 443 kts
2026-04-14 21:39 -46.83721 -67.69527 21439 ft 436 kts
2026-04-14 21:40 -46.80769 -67.68613 20781 ft 429 kts
2026-04-14 21:40 -46.77867 -67.67715 20144 ft 423 kts
2026-04-14 21:40 -46.75003 -67.66831 19520 ft 418 kts
2026-04-14 21:40 -46.72212 -67.65968 18915 ft 413 kts
2026-04-14 21:41 -46.69411 -67.65103 18314 ft 408 kts
2026-04-14 21:41 -46.66654 -67.64207 17669 ft 406 kts 10°
2026-04-14 21:41 -46.63994 -67.62779 16993 ft 408 kts 18°
2026-04-14 21:41 -46.61405 -67.61088 16321 ft 405 kts 19°
2026-04-14 21:42 -46.58858 -67.59362 15696 ft 402 kts 20°
2026-04-14 21:42 -46.56317 -67.57649 15047 ft 399 kts 20°
2026-04-14 21:42 -46.53807 -67.55984 14489 ft 394 kts 20°
2026-04-14 21:42 -46.51326 -67.54366 14002 ft 389 kts 20°
2026-04-14 21:43 -46.48867 -67.52778 13507 ft 384 kts 20°
2026-04-14 21:43 -46.46439 -67.51222 12962 ft 379 kts 20°
2026-04-14 21:43 -46.44034 -67.49689 12427 ft 375 kts 20°
2026-04-14 21:43 -46.41652 -67.48174 11898 ft 372 kts 20°
2026-04-14 21:44 -46.39289 -67.46674 11400 ft 369 kts 20°
2026-04-14 21:44 -46.36977 -67.45208 10875 ft 366 kts 20°
2026-04-14 21:44 -46.34671 -67.43745 10686 ft 355 kts 20°
2026-04-14 21:44 -46.32452 -67.42337 10538 ft 343 kts 20°
2026-04-14 21:45 -46.30307 -67.40974 10419 ft 330 kts 20°
2026-04-14 21:45 -46.28237 -67.39664 10322 ft 319 kts 20°
2026-04-14 21:45 -46.26234 -67.38400 10190 ft 309 kts 20°
2026-04-14 21:45 -46.24293 -67.37176 10038 ft 301 kts 20°
2026-04-14 21:46 -46.22374 -67.35968 9742 ft 300 kts 20°
2026-04-14 21:46 -46.20456 -67.34763 9418 ft 298 kts 20°
2026-04-14 21:46 -46.18561 -67.33571 9100 ft 297 kts 20°
2026-04-14 21:46 -46.16671 -67.32382 8786 ft 295 kts 19°
2026-04-14 21:47 -46.14793 -67.31202 8469 ft 293 kts 19°
2026-04-14 21:47 -46.12926 -67.30029 8151 ft 292 kts 19°
2026-04-14 21:47 -46.11068 -67.28862 7835 ft 290 kts 19°
2026-04-14 21:47 -46.09219 -67.27702 7530 ft 289 kts 19°
2026-04-14 21:48 -46.07382 -67.26550 7232 ft 287 kts 19°
2026-04-14 21:48 -46.05575 -67.25418 6939 ft 286 kts 19°
2026-04-14 21:48 -46.03751 -67.24276 6642 ft 285 kts 19°
2026-04-14 21:48 -46.01936 -67.23140 6336 ft 284 kts 19°
2026-04-14 21:49 -46.00131 -67.22012 6063 ft 282 kts 19°
2026-04-14 21:49 -45.98342 -67.20894 5798 ft 279 kts 18°
2026-04-14 21:49 -45.96572 -67.19788 5527 ft 276 kts 18°
2026-04-14 21:49 -45.94821 -67.18696 5277 ft 273 kts 18°
2026-04-14 21:50 -45.93090 -67.17617 5031 ft 270 kts 18°
2026-04-14 21:50 -45.91366 -67.16543 4773 ft 268 kts 18°
2026-04-14 21:50 -45.89659 -67.15480 4516 ft 266 kts 17°
2026-04-14 21:50 -45.87965 -67.14426 4242 ft 264 kts 17°
2026-04-14 21:51 -45.86286 -67.13383 4036 ft 261 kts 17°
2026-04-14 21:51 -45.84635 -67.12396 3893 ft 251 kts 10°
2026-04-14 21:51 -45.83534 -67.12182 3781 ft 236 kts 347°
2026-04-14 21:51 -45.82602 -67.12474 3688 ft 225 kts 334°
2026-04-14 21:52 -45.81221 -67.13407 3484 ft 216 kts 323°
2026-04-14 21:52 -45.79963 -67.14507 3292 ft 213 kts 322°
2026-04-14 21:52 -45.78708 -67.15614 3082 ft 211 kts 322°
2026-04-14 21:52 -45.77464 -67.16700 2872 ft 208 kts 322°
2026-04-14 21:53 -45.76234 -67.17765 2689 ft 204 kts 321°
2026-04-14 21:53 -45.75215 -67.19024 2459 ft 186 kts 293°
2026-04-14 21:53 -45.75113 -67.20748 2259 ft 173 kts 256°
2026-04-14 21:53 -45.75378 -67.22391 2079 ft 166 kts 261°
2026-04-14 21:54 -45.75574 -67.23963 2004 ft 157 kts 261°
2026-04-14 21:54 -45.75772 -67.25495 2009 ft 157 kts 259°
2026-04-14 21:54 -45.75987 -67.27022 1998 ft 155 kts 260°
2026-04-14 21:54 -45.76186 -67.28516 1980 ft 149 kts 260°
2026-04-14 21:55 -45.76371 -67.29944 1985 ft 144 kts 260°
2026-04-14 21:55 -45.76552 -67.31350 1966 ft 145 kts 260°
2026-04-14 21:55 -45.76737 -67.32785 1798 ft 144 kts 259°
2026-04-14 21:55 -45.76913 -67.34140 1605 ft 132 kts 261°
2026-04-14 21:56 -45.77071 -67.35372 1475 ft 122 kts 259°
2026-04-14 21:56 -45.77229 -67.36587 1292 ft 124 kts 259°
2026-04-14 21:56 -45.77383 -67.37800 1128 ft 122 kts 260°
2026-04-14 21:56 -45.77522 -67.38987 927 ft 121 kts 262°
2026-04-14 21:57 -45.77694 -67.40187 779 ft 124 kts 260°
2026-04-14 21:57 -45.77872 -67.41403 577 ft 126 kts 262°
2026-04-14 21:57 -45.78021 -67.42648 396 ft 127 kts 264°
2026-04-14 21:57 -45.78171 -67.43887 271 ft 125 kts 263°
2026-04-14 21:58 -45.78336 -67.45088 119 ft 120 kts 262°
2026-04-14 21:58 -45.78462 -67.46101 121 ft 78 kts 259°
2026-04-14 21:58 -45.78527 -67.46587 124 ft 32 kts 259°
2026-04-14 21:58 -45.78556 -67.46779 124 ft 9 kts 239°
2026-04-14 21:59 -45.78610 -67.46809 125 ft 9 kts 185°
2026-04-14 21:59 -45.78668 -67.46808 125 ft 8 kts 178°
2026-04-14 21:59 -45.78725 -67.46805 127 ft 8 kts 178°
2026-04-14 21:59 -45.78797 -67.46802 131 ft 13 kts 179°
2026-04-14 22:00 -45.78886 -67.46798 132 ft 7 kts 177°
2026-04-14 22:00 -45.78916 -67.46814 133 ft 4 kts 238°
2026-04-14 22:00 -45.78930 -67.46846 135 ft 4 kts 237°
2026-04-14 22:00 -45.78945 -67.46877 136 ft 4 kts 234°
2026-04-14 22:01 -45.78956 -67.46899 137 ft 1 kts 235°
2026-04-14 22:01 -45.78957 -67.46902 137 ft 0 kts 235°